TimeEDT,TemperatureF,Dew PointF,Humidity,Sea Level PressureIn,VisibilityMPH,Wind Direction,Wind SpeedMPH,Gust SpeedMPH,PrecipitationIn,Events,Conditions,WindDirDegrees,DateUTC
12:15 AM,50.0,33.8,54,29.50,10.0,West,12.7,19.6,N/A,,Overcast,270,2012-10-30 04:15:00
12:35 AM,48.2,32.0,54,29.50,10.0,West,11.5,19.6,N/A,,Overcast,270,2012-10-30 04:35:00
12:55 AM,48.2,32.0,54,29.49,10.0,West,13.8,20.7,N/A,,Scattered Clouds,270,2012-10-30 04:55:00
1:15 AM,48.2,32.0,54,29.49,10.0,WSW,12.7,-,N/A,,Mostly Cloudy,250,2012-10-30 05:15:00
1:35 AM,48.2,32.0,54,29.48,10.0,WSW,13.8,18.4,N/A,,Overcast,250,2012-10-30 05:35:00
1:55 AM,48.2,33.8,58,29.47,10.0,WSW,11.5,17.3,N/A,,Overcast,240,2012-10-30 05:55:00
2:15 AM,48.2,32.0,54,29.47,10.0,WSW,13.8,19.6,N/A,,Overcast,240,2012-10-30 06:15:00
2:35 AM,48.2,33.8,58,29.47,10.0,WSW,13.8,18.4,N/A,,Overcast,240,2012-10-30 06:35:00
3:55 AM,48.2,33.8,58,29.46,10.0,WSW,10.4,-,N/A,,Mostly Cloudy,240,2012-10-30 07:55:00
4:15 AM,46.4,33.8,62,29.46,10.0,WSW,9.2,-,N/A,,Overcast,240,2012-10-30 08:15:00
4:55 AM,46.4,33.8,62,29.47,10.0,WSW,10.4,17.3,N/A,,Mostly Cloudy,250,2012-10-30 08:55:00
5:15 AM,48.2,32.0,54,29.47,10.0,West,12.7,-,N/A,,Overcast,260,2012-10-30 09:15:00
5:35 AM,48.2,32.0,54,29.48,10.0,West,11.5,-,N/A,,Overcast,260,2012-10-30 09:35:00
5:55 AM,48.2,32.0,54,29.48,10.0,West,11.5,18.4,N/A,,Scattered Clouds,260,2012-10-30 09:55:00
6:15 AM,46.4,32.0,57,29.48,10.0,West,11.5,16.1,N/A,,Mostly Cloudy,260,2012-10-30 10:15:00
6:35 AM,46.4,32.0,57,29.48,10.0,WSW,10.4,-,N/A,,Overcast,250,2012-10-30 10:35:00
6:55 AM,46.4,32.0,57,29.49,10.0,West,13.8,18.4,N/A,,Overcast,260,2012-10-30 10:55:00
7:15 AM,46.4,32.0,57,29.50,10.0,WSW,10.4,20.7,N/A,,Overcast,250,2012-10-30 11:15:00
7:35 AM,46.4,32.0,57,29.50,10.0,WSW,9.2,-,N/A,,Overcast,240,2012-10-30 11:35:00
8:15 AM,48.2,32.0,54,29.51,10.0,West,8.1,-,N/A,,Overcast,260,2012-10-30 12:15:00
8:35 AM,48.2,32.0,54,29.52,10.0,WSW,10.4,-,N/A,,Overcast,240,2012-10-30 12:35:00
8:55 AM,50.0,33.8,54,29.52,10.0,SW,9.2,16.1,N/A,,Overcast,230,2012-10-30 12:55:00
9:15 AM,50.0,33.8,54,29.52,10.0,WSW,13.8,20.7,N/A,,Overcast,250,2012-10-30 13:15:00
9:35 AM,50.0,32.0,50,29.53,10.0,WSW,13.8,19.6,N/A,,Overcast,250,2012-10-30 13:35:00
9:55 AM,50.0,32.0,50,29.54,10.0,WSW,13.8,18.4,N/A,,Overcast,240,2012-10-30 13:55:00
10:15 AM,48.2,35.6,62,29.55,10.0,WSW,16.1,21.9,N/A,Rain,Light Rain,250,2012-10-30 14:15:00
10:35 AM,48.2,35.6,62,29.55,10.0,WSW,11.5,-,N/A,,Overcast,240,2012-10-30 14:35:00
10:55 AM,50.0,35.6,58,29.55,10.0,WSW,12.7,18.4,N/A,,Overcast,240,2012-10-30 14:55:00
11:15 AM,50.0,35.6,58,29.55,10.0,WSW,10.4,-,N/A,,Overcast,240,2012-10-30 15:15:00
11:35 AM,50.0,33.8,54,29.54,10.0,WSW,12.7,19.6,N/A,,Overcast,240,2012-10-30 15:35:00
11:55 AM,51.8,35.6,54,29.54,10.0,SW,13.8,18.4,N/A,,Overcast,230,2012-10-30 15:55:00
12:15 PM,51.8,33.8,50,29.54,10.0,WSW,10.4,19.6,N/A,,Mostly Cloudy,240,2012-10-30 16:15:00
12:35 PM,53.6,33.8,47,29.53,10.0,WSW,12.7,23.0,N/A,,Overcast,240,2012-10-30 16:35:00
12:55 PM,53.6,33.8,47,29.53,10.0,WSW,12.7,19.6,N/A,,Mostly Cloudy,240,2012-10-30 16:55:00
1:15 PM,55.4,33.8,44,29.53,10.0,WSW,15.0,24.2,N/A,,Mostly Cloudy,240,2012-10-30 17:15:00
1:35 PM,55.4,33.8,44,29.52,10.0,West,17.3,23.0,N/A,,Mostly Cloudy,270,2012-10-30 17:35:00
1:55 PM,55.4,33.8,44,29.52,10.0,WSW,15.0,21.9,N/A,,Mostly Cloudy,250,2012-10-30 17:55:00
2:15 PM,57.2,33.8,41,29.52,10.0,West,13.8,23.0,N/A,,Overcast,260,2012-10-30 18:15:00
2:35 PM,57.2,33.8,41,29.52,10.0,WSW,17.3,26.5,N/A,,Overcast,240,2012-10-30 18:35:00
2:55 PM,57.2,33.8,41,29.52,10.0,West,10.4,21.9,N/A,,Overcast,270,2012-10-30 18:55:00
3:15 PM,57.2,35.6,44,29.52,10.0,WSW,12.7,21.9,N/A,,Mostly Cloudy,240,2012-10-30 19:15:00
3:35 PM,57.2,35.6,44,29.52,10.0,WSW,13.8,20.7,N/A,,Mostly Cloudy,240,2012-10-30 19:35:00
3:55 PM,55.4,35.6,47,29.52,10.0,SW,15.0,18.4,N/A,,Overcast,230,2012-10-30 19:55:00
4:15 PM,55.4,35.6,47,29.52,10.0,WSW,10.4,16.1,N/A,,Overcast,240,2012-10-30 20:15:00
4:35 PM,55.4,35.6,47,29.53,10.0,WSW,10.4,16.1,N/A,,Overcast,250,2012-10-30 20:35:00
4:55 PM,55.4,35.6,47,29.54,10.0,West,9.2,-,N/A,,Light Drizzle,260,2012-10-30 20:55:00
5:15 PM,53.6,35.6,51,29.55,10.0,West,5.8,-,N/A,Rain,Light Rain,280,2012-10-30 21:15:00
5:35 PM,53.6,35.6,51,29.56,10.0,West,6.9,-,N/A,,Overcast,280,2012-10-30 21:35:00
5:55 PM,53.6,35.6,51,29.57,10.0,West,9.2,-,N/A,,Overcast,260,2012-10-30 21:55:00
6:15 PM,53.6,35.6,51,29.57,10.0,WSW,8.1,-,N/A,,Scattered Clouds,250,2012-10-30 22:15:00
6:35 PM,51.8,35.6,54,29.58,10.0,SW,5.8,-,N/A,,Scattered Clouds,230,2012-10-30 22:35:00
6:55 PM,51.8,37.4,58,29.59,10.0,SW,6.9,-,N/A,,Scattered Clouds,230,2012-10-30 22:55:00
7:15 PM,51.8,35.6,54,29.61,10.0,WSW,8.1,-,N/A,,Mostly Cloudy,250,2012-10-30 23:15:00
7:35 PM,51.8,35.6,54,29.62,10.0,West,15.0,19.6,N/A,,Overcast,280,2012-10-30 23:35:00
7:55 PM,51.8,33.8,50,29.63,10.0,West,9.2,-,N/A,,Mostly Cloudy,270,2012-10-30 23:55:00
8:15 PM,53.6,33.8,47,29.63,10.0,West,9.2,-,N/A,,Overcast,270,2012-10-31 00:15:00
8:35 PM,53.6,33.8,47,29.64,10.0,West,5.8,9.2,N/A,,Mostly Cloudy,270,2012-10-31 00:35:00
8:55 PM,53.6,33.8,47,29.65,10.0,West,12.7,17.3,N/A,,Scattered Clouds,270,2012-10-31 00:55:00
9:15 PM,51.8,33.8,50,29.66,10.0,NW,8.1,-,N/A,,Mostly Cloudy,320,2012-10-31 01:15:00
9:35 PM,50.0,35.6,58,29.68,10.0,WNW,8.1,16.1,N/A,,Scattered Clouds,300,2012-10-31 01:35:00
9:55 PM,50.0,35.6,58,29.68,10.0,WNW,6.9,-,N/A,,Scattered Clouds,300,2012-10-31 01:55:00
10:15 PM,50.0,35.6,58,29.69,10.0,WNW,5.8,-,N/A,,Scattered Clouds,290,2012-10-31 02:15:00
10:35 PM,50.0,35.6,58,29.69,10.0,West,4.6,-,N/A,,Scattered Clouds,280,2012-10-31 02:35:00
10:55 PM,48.2,35.6,62,29.69,10.0,West,4.6,-,N/A,,Mostly Cloudy,270,2012-10-31 02:55:00
11:15 PM,50.0,35.6,58,29.69,10.0,West,5.8,-,N/A,,Mostly Cloudy,270,2012-10-31 03:15:00
11:35 PM,50.0,35.6,58,29.69,10.0,West,9.2,-,N/A,,Scattered Clouds,270,2012-10-31 03:35:00
11:55 PM,50.0,35.6,58,29.69,10.0,WSW,5.8,-,N/A,,Scattered Clouds,250,2012-10-31 03:55:00